Check out our new BloomSky Weather System.

Active alerts


No alerts


Thunder radar  blitzortung!


Rain radar more information rain snow radar


Visit our other weather sites:

Template documentation
and downloads

And another site



Weather Underground History page Text

Daily Summary for October 29, 2017 Units:  English    Metric   Both
« Previous Day
Next Day »
Daily Weekly Monthly Yearly Custom
  High: Low: Average:
Temperature: TemperatureF °F 34.2 °F 53 °F
Dew Point: DewpointF °F 28.2 °F 34.2 °F
Humidity: Humidity % 23 % 56 %
Wind Speed: WindSpeedMPH mph 0.0 mph 0.9 mph
Wind Gust: WindSpeedGustMPH mph - -
Wind:- - South
Pressure: PressureIn in 29.96 in -
Precipitation: 0.00 in    
Historical Graphs
 
 
Tabular Data for October 29, 2017
Time Temperature Dew Point Pressure Wind Wind Speed Wind Gust Humidity Rainfall Rate (Hourly)
TemperatureF °F DewpointF °F PressureIn in Calm     Humidity % HourlyPrecipIn in
00:00 40.6 °F 32.7 °F 30.13 in Calm     73 % 0.00 in
00:05 40.5 °F 32.9 °F 30.13 in Calm     74 % 0.00 in
00:10 40.3 °F 32.7 °F 30.13 in Calm     74 % 0.00 in
00:15 40.5 °F 33.8 °F 30.13 in Calm     77 % 0.00 in
00:20 40.3 °F 33.3 °F 30.13 in Calm     76 % 0.00 in
00:25 40.5 °F 33.8 °F 30.13 in Calm     77 % 0.00 in
00:30 41.0 °F 34.3 °F 30.13 in Calm     77 % 0.00 in
00:35 41.0 °F 34.0 °F 30.13 in Calm     76 % 0.00 in
00:40 40.6 °F 34.0 °F 30.13 in Calm     77 % 0.00 in
00:45 40.6 °F 34.3 °F 30.13 in Calm     78 % 0.00 in
00:50 40.5 °F 34.7 °F 30.13 in Calm     80 % 0.00 in
00:55 40.3 °F 34.5 °F 30.13 in Calm     80 % 0.00 in
01:00 39.9 °F 34.3 °F 30.13 in Calm     80 % 0.00 in
01:05 39.6 °F 34.2 °F 30.13 in Calm     81 % 0.00 in
01:10 39.6 °F 34.5 °F 30.13 in Calm     82 % 0.00 in
01:15 39.4 °F 34.7 °F 30.13 in Calm     83 % 0.00 in
01:20 39.4 °F 34.7 °F 30.13 in Calm     83 % 0.00 in
01:25 39.4 °F 34.9 °F 30.13 in Calm     84 % 0.00 in
01:30 39.2 °F 34.5 °F 30.13 in Calm     83 % 0.00 in
01:35 39.0 °F 34.3 °F 30.13 in Calm     83 % 0.00 in
01:40 38.8 °F 34.3 °F 30.13 in Calm     84 % 0.00 in
01:45 38.7 °F 34.2 °F 30.13 in Calm     84 % 0.00 in
01:50 38.3 °F 33.6 °F 30.13 in Calm     83 % 0.00 in
01:55 37.9 °F 33.3 °F 30.13 in Calm     83 % 0.00 in
02:00 37.6 °F 32.9 °F 30.13 in Calm     83 % 0.00 in
02:05 37.2 °F 32.9 °F 30.12 in Calm     84 % 0.00 in
02:10 37.6 °F 33.4 °F 30.12 in Calm     85 % 0.00 in
02:15 38.3 °F 34.0 °F 30.12 in Calm     84 % 0.00 in
02:20 38.7 °F 34.0 °F 30.12 in Calm     83 % 0.00 in
02:25 38.5 °F 33.8 °F 30.12 in Calm     83 % 0.00 in
02:30 38.3 °F 33.6 °F 30.12 in Calm     83 % 0.00 in
02:35 37.9 °F 33.6 °F 30.12 in Calm     84 % 0.00 in
02:40 37.9 °F 33.8 °F 30.12 in Calm     85 % 0.00 in
02:45 37.8 °F 33.6 °F 30.12 in Calm     85 % 0.00 in
02:50 37.6 °F 33.4 °F 30.12 in Calm     85 % 0.00 in
02:55 37.2 °F 33.1 °F 30.12 in Calm     85 % 0.00 in
03:00 37.2 °F 33.4 °F 30.12 in Calm     86 % 0.00 in
03:05 37.8 °F 33.6 °F 30.12 in Calm     85 % 0.00 in
03:10 37.9 °F 33.8 °F 30.11 in Calm     85 % 0.00 in
03:15 37.9 °F 33.6 °F 30.11 in Calm     84 % 0.00 in
03:20 37.8 °F 33.6 °F 30.11 in Calm     85 % 0.00 in
03:25 37.6 °F 33.3 °F 30.11 in Calm     84 % 0.00 in
03:30 37.2 °F 33.1 °F 30.11 in Calm     85 % 0.00 in
03:35 36.9 °F 32.7 °F 30.11 in Calm     85 % 0.00 in
03:40 36.5 °F 32.7 °F 30.11 in Calm     86 % 0.00 in
03:45 36.5 °F 33.1 °F 30.11 in Calm     87 % 0.00 in
03:50 36.3 °F 32.5 °F 30.11 in Calm     86 % 0.00 in
03:56 36.1 °F 32.7 °F 30.11 in Calm     87 % 0.00 in
04:01 36.3 °F 33.1 °F 30.11 in Calm     88 % 0.00 in
04:05 36.3 °F 33.1 °F 30.11 in Calm     88 % 0.00 in
04:10 36.3 °F 33.1 °F 30.11 in Calm     88 % 0.00 in
04:15 36.1 °F 33.3 °F 30.11 in Calm     89 % 0.00 in
04:20 36.0 °F 33.1 °F 30.11 in Calm     89 % 0.00 in
04:25 35.8 °F 32.9 °F 30.11 in Calm     89 % 0.00 in
04:30 35.4 °F 32.5 °F 30.11 in Calm     89 % 0.00 in
04:35 35.2 °F 32.4 °F 30.11 in Calm     89 % 0.00 in
04:40 35.2 °F 32.9 °F 30.11 in Calm     91 % 0.00 in
04:45 35.2 °F 32.9 °F 30.11 in Calm     91 % 0.00 in
04:50 35.2 °F 32.9 °F 30.11 in Calm     91 % 0.00 in
04:55 35.6 °F 33.4 °F 30.11 in Calm     92 % 0.00 in
05:00 36.0 °F 33.8 °F 30.11 in Calm     92 % 0.00 in
05:05 36.0 °F 33.6 °F 30.11 in Calm     91 % 0.00 in
05:10 35.8 °F 33.4 °F 30.11 in Calm     91 % 0.00 in
05:15 35.2 °F 32.5 °F 30.11 in Calm     90 % 0.00 in
05:20 35.1 °F 32.7 °F 30.11 in Calm     91 % 0.00 in
05:25 35.2 °F 32.9 °F 30.11 in Calm     91 % 0.00 in
05:26 35.2 °F 32.9 °F 30.11 in Calm     91 % 0.00 in
05:31 35.2 °F 32.9 °F 30.12 in Calm     91 % 0.00 in
05:36 35.2 °F 33.1 °F 30.12 in Calm     92 % 0.00 in
05:41 34.9 °F 32.5 °F 30.12 in Calm     91 % 0.00 in
05:46 34.7 °F 32.4 °F 30.11 in Calm     91 % 0.00 in
05:51 34.9 °F 32.7 °F 30.11 in Calm     92 % 0.00 in
05:56 35.1 °F 32.9 °F 30.11 in Calm     92 % 0.00 in
06:01 35.1 °F 32.9 °F 30.11 in Calm     92 % 0.00 in
06:06 35.2 °F 33.4 °F 30.11 in Calm     93 % 0.00 in
06:11 35.2 °F 33.1 °F 30.11 in Calm     92 % 0.00 in
06:16 35.1 °F 32.9 °F 30.12 in Calm     92 % 0.00 in
06:21 34.9 °F 32.7 °F 30.12 in Calm     92 % 0.00 in
06:26 34.5 °F 32.4 °F 30.12 in Calm     92 % 0.00 in
06:31 34.3 °F 32.5 °F 30.12 in Calm     93 % 0.00 in
06:36 34.2 °F 32.4 °F 30.12 in Calm     93 % 0.00 in
06:41 34.2 °F 32.4 °F 30.12 in Calm     93 % 0.00 in
06:46 34.2 °F 32.4 °F 30.11 in Calm     93 % 0.00 in
06:51 34.5 °F 32.9 °F 30.11 in Calm     94 % 0.00 in
06:56 34.7 °F 33.1 °F 30.11 in Calm     94 % 0.00 in
07:01 34.9 °F 33.3 °F 30.12 in Calm     94 % 0.00 in
07:06 34.9 °F 33.3 °F 30.11 in Calm     94 % 0.00 in
07:11 35.1 °F 33.4 °F 30.11 in Calm     94 % 0.00 in
07:16 35.1 °F 33.4 °F 30.11 in Calm     94 % 0.00 in
07:21 35.2 °F 33.6 °F 30.11 in Calm     94 % 0.00 in
07:26 35.4 °F 33.8 °F 30.11 in Calm     94 % 0.00 in
07:31 35.4 °F 33.8 °F 30.11 in Calm     94 % 0.00 in
07:36 35.2 °F 33.4 °F 30.11 in Calm     93 % 0.00 in
07:41 35.1 °F 33.3 °F 30.11 in Calm     93 % 0.00 in
07:46 34.9 °F 33.1 °F 30.12 in Calm     93 % 0.00 in
07:51 34.7 °F 32.9 °F 30.12 in Calm     93 % 0.00 in
07:56 34.9 °F 33.3 °F 30.12 in Calm     94 % 0.00 in
08:01 35.2 °F 33.6 °F 30.12 in Calm     94 % 0.00 in
08:06 36.0 °F 34.3 °F 30.12 in Calm     94 % 0.00 in
08:11 36.1 °F 34.3 °F 30.12 in Calm     93 % 0.00 in
08:16 36.1 °F 34.3 °F 30.12 in Calm     93 % 0.00 in
08:21 36.3 °F 34.5 °F 30.12 in Calm     93 % 0.00 in
08:26 36.9 °F 35.1 °F 30.12 in Calm     93 % 0.00 in
08:31 37.8 °F 36.1 °F 30.12 in Calm     94 % 0.00 in
08:36 39.6 °F 38.3 °F 30.12 in Calm     95 % 0.00 in
08:41 41.7 °F 40.6 °F 30.12 in Calm     96 % 0.00 in
08:46 44.1 °F 42.4 °F 30.12 in Calm     94 % 0.00 in
08:51 45.7 °F 42.6 °F 30.12 in Calm     89 % 0.00 in
08:56 46.9 °F 41.7 °F 30.12 in Calm     82 % 0.00 in
09:01 48.4 °F 40.5 °F 30.13 in Calm     74 % 0.00 in
09:06 48.9 °F 37.8 °F 30.12 in Calm   1.0 mph 65 % 0.00 in
09:11 49.6 °F 38.7 °F 30.12 in Calm   1.0 mph 66 % 0.00 in
09:16 50.5 °F 39.6 °F 30.12 in Calm   1.0 mph 66 % 0.00 in
09:21 51.6 °F 38.1 °F 30.13 in Calm   1.0 mph 60 % 0.00 in
09:26 52.9 °F 39.4 °F 30.13 in Calm   1.0 mph 60 % 0.00 in
09:36 54.3 °F 37.9 °F 30.13 in Calm   1.0 mph 54 % 0.00 in
09:41 55.0 °F 38.7 °F 30.13 in Calm   2.0 mph 54 % 0.00 in
09:46 55.2 °F 38.3 °F 30.13 in Calm   2.0 mph 53 % 0.00 in
09:51 56.1 °F 37.8 °F 30.12 in SSW 1.0 mph 3.0 mph 50 % 0.00 in
09:56 56.8 °F 36.9 °F 30.13 in SSE 2.0 mph 3.0 mph 47 % 0.00 in
10:01 57.0 °F 37.0 °F 30.12 in SSE 2.0 mph 4.0 mph 47 % 0.00 in
10:06 57.7 °F 36.5 °F 30.12 in SSE 2.0 mph 4.0 mph 45 % 0.00 in
10:11 58.3 °F 37.0 °F 30.12 in SSE 1.0 mph 4.0 mph 45 % 0.00 in
10:16 58.8 °F 34.5 °F 30.12 in SSE 2.0 mph 5.0 mph 40 % 0.00 in
10:21 59.0 °F 33.4 °F 30.12 in SSW 2.0 mph 5.0 mph 38 % 0.00 in
10:26 59.4 °F 30.2 °F 30.12 in SSE 3.0 mph 5.0 mph 33 % 0.00 in
10:31 59.2 °F 30.7 °F 30.12 in ESE 2.0 mph 5.0 mph 34 % 0.00 in
10:36 59.7 °F 32.0 °F 30.12 in SSE 2.0 mph 5.0 mph 35 % 0.00 in
10:41 61.0 °F 33.1 °F 30.12 in Calm   5.0 mph 35 % 0.00 in
10:46 61.2 °F 31.8 °F 30.12 in SE 1.0 mph 3.0 mph 33 % 0.00 in
10:51 61.3 °F 32.0 °F 30.12 in ESE 2.0 mph 4.0 mph 33 % 0.00 in
11:01 62.1 °F 31.1 °F 30.12 in SE 2.0 mph 4.0 mph 31 % 0.00 in
11:06 62.1 °F 30.2 °F 30.12 in SE 2.0 mph 4.0 mph 30 % 0.00 in
11:11 61.9 °F 30.0 °F 30.12 in SSE 2.0 mph 5.0 mph 30 % 0.00 in
11:16 63.0 °F 30.2 °F 30.12 in SSW 5.0 mph 5.0 mph 29 % 0.00 in
11:21 63.5 °F 30.7 °F 30.11 in SSW 2.0 mph 5.0 mph 29 % 0.00 in
11:26 64.2 °F 32.2 °F 30.11 in SSE 3.0 mph 5.0 mph 30 % 0.00 in
11:27 64.2 °F 32.2 °F 30.11 in SE 2.0 mph 5.0 mph 30 % 0.00 in
11:32 64.9 °F 31.1 °F 30.11 in SE 1.0 mph 5.0 mph 28 % 0.00 in
11:37 65.3 °F 29.5 °F 30.11 in Calm   6.0 mph 26 % 0.00 in
11:42 64.0 °F 30.2 °F 30.11 in South 1.0 mph 6.0 mph 28 % 0.00 in
11:47 65.1 °F 30.4 °F 30.11 in South 3.0 mph 6.0 mph 27 % 0.00 in
11:52 66.0 °F 30.2 °F 30.11 in Calm   5.0 mph 26 % 0.00 in
11:57 66.0 °F 28.2 °F 30.10 in WNW 3.0 mph 5.0 mph 24 % 0.00 in
12:02 65.8 °F 30.0 °F 30.10 in West 1.0 mph 6.0 mph 26 % 0.00 in
12:07 66.6 °F 31.5 °F 30.10 in Calm   7.0 mph 27 % 0.00 in
12:12 66.4 °F 30.4 °F 30.10 in South 5.0 mph 7.0 mph 26 % 0.00 in
12:17 66.6 °F 28.6 °F 30.10 in South 3.0 mph 8.0 mph 24 % 0.00 in
12:22 66.6 °F 30.6 °F 30.09 in South 3.0 mph 8.0 mph 26 % 0.00 in
12:27 66.9 °F 30.0 °F 30.09 in West 1.0 mph 8.0 mph 25 % 0.00 in
12:32 66.4 °F 30.4 °F 30.08 in Calm   6.0 mph 26 % 0.00 in
12:37 66.7 °F 30.7 °F 30.08 in SSW 5.0 mph 5.0 mph 26 % 0.00 in
12:42 67.1 °F 29.1 °F 30.08 in SSW 3.0 mph 7.0 mph 24 % 0.00 in
12:47 67.3 °F 30.2 °F 30.08 in Calm   7.0 mph 25 % 0.00 in
12:52 67.8 °F 29.7 °F 30.07 in NW 2.0 mph 7.0 mph 24 % 0.00 in
12:56 67.8 °F 30.7 °F 30.07 in SSE 2.0 mph 4.0 mph 25 % 0.00 in
13:01 67.6 °F 31.5 °F 30.07 in SW 2.0 mph 10.0 mph 26 % 0.00 in
13:07 68.4 °F 31.1 °F 30.07 in South 1.0 mph 10.0 mph 25 % 0.00 in
13:12 68.5 °F 32.4 °F 30.06 in WNW 2.0 mph 10.0 mph 26 % 0.00 in
13:17 68.2 °F 32.0 °F 30.06 in NW 3.0 mph 6.0 mph 26 % 0.00 in
13:22 68.4 °F 33.1 °F 30.06 in ESE 1.0 mph 6.0 mph 27 % 0.00 in
13:27 69.1 °F 31.8 °F 30.05 in SSW 1.0 mph 6.0 mph 25 % 0.00 in
13:32 69.1 °F 32.7 °F 30.05 in Calm   6.0 mph 26 % 0.00 in
13:37 69.4 °F 31.1 °F 30.04 in SSE 1.0 mph 6.0 mph 24 % 0.00 in
13:42 69.6 °F 33.3 °F 30.04 in Calm   6.0 mph 26 % 0.00 in
13:46 69.8 °F 32.4 °F 30.04 in Calm   5.0 mph 25 % 0.00 in
13:51 70.2 °F 32.7 °F 30.04 in SSE 2.0 mph 6.0 mph 25 % 0.00 in
13:56 70.0 °F 33.4 °F 30.03 in South 1.0 mph 6.0 mph 26 % 0.00 in
14:01 70.3 °F 31.8 °F 30.03 in SE 1.0 mph 6.0 mph 24 % 0.00 in
14:06 70.5 °F 33.1 °F 30.03 in SW 3.0 mph 5.0 mph 25 % 0.00 in
14:11 70.3 °F 30.7 °F 30.02 in SSW 4.0 mph 5.0 mph 23 % 0.00 in
14:16 70.3 °F 31.8 °F 30.02 in South 3.0 mph 5.0 mph 24 % 0.00 in
14:21 70.5 °F 30.9 °F 30.02 in Calm   7.0 mph 23 % 0.00 in
14:26 70.7 °F 32.2 °F 30.01 in South 3.0 mph 7.0 mph 24 % 0.00 in
14:31 70.7 °F 33.1 °F 30.01 in NW 1.0 mph 9.0 mph 25 % 0.00 in
14:36 70.5 °F 32.0 °F 30.01 in NNW 3.0 mph 9.0 mph 24 % 0.00 in
14:41 70.7 °F 33.1 °F 30.01 in SSW 2.0 mph 9.0 mph 25 % 0.00 in
14:46 71.1 °F 31.5 °F 30.00 in ENE 1.0 mph 6.0 mph 23 % 0.00 in
14:51 71.2 °F 33.6 °F 30.00 in SW 1.0 mph 5.0 mph 25 % 0.00 in
14:56 71.8 °F 34.0 °F 30.00 in SW 2.0 mph 6.0 mph 25 % 0.00 in
15:01 71.8 °F 33.1 °F 29.99 in SW 3.0 mph 6.0 mph 24 % 0.00 in
15:06 71.8 °F 34.0 °F 29.99 in NW 2.0 mph 7.0 mph 25 % 0.00 in
15:11 71.8 °F 34.0 °F 29.99 in Calm   7.0 mph 25 % 0.00 in
15:16 71.6 °F 34.0 °F 29.99 in NW 2.0 mph 7.0 mph 25 % 0.00 in
15:21 71.6 °F 32.9 °F 29.99 in SE 2.0 mph 6.0 mph 24 % 0.00 in
15:26 71.8 °F 33.1 °F 29.99 in Calm   6.0 mph 24 % 0.00 in
15:31 71.8 °F 34.0 °F 29.99 in SSW 1.0 mph 6.0 mph 25 % 0.00 in
15:36 71.4 °F 33.8 °F 29.99 in SSE 1.0 mph 9.0 mph 25 % 0.00 in
15:41 71.6 °F 34.9 °F 29.99 in SSE 7.0 mph 9.0 mph 26 % 0.00 in
15:46 71.6 °F 34.9 °F 29.99 in SW 2.0 mph 9.0 mph 26 % 0.00 in
15:51 71.4 °F 33.8 °F 29.99 in SSW 2.0 mph 8.0 mph 25 % 0.00 in
15:56 71.8 °F 34.0 °F 29.99 in Calm   8.0 mph 25 % 0.00 in
16:01 71.8 °F 35.1 °F 29.99 in SSW 7.0 mph 8.0 mph 26 % 0.00 in
16:06 71.8 °F 34.0 °F 29.99 in SSE 3.0 mph 8.0 mph 25 % 0.00 in
16:11 71.4 °F 33.8 °F 29.99 in SE 3.0 mph 8.0 mph 25 % 0.00 in
16:16 71.4 °F 34.7 °F 29.99 in SW 4.0 mph 8.0 mph 26 % 0.00 in
16:21 71.4 °F 33.8 °F 29.98 in Calm   8.0 mph 25 % 0.00 in
16:26 71.6 °F 34.0 °F 29.99 in SSW 5.0 mph 8.0 mph 25 % 0.00 in
16:31 71.4 °F 32.7 °F 29.98 in NNW 1.0 mph 7.0 mph 24 % 0.00 in
16:36 71.4 °F 33.8 °F 29.98 in SSE 1.0 mph 7.0 mph 25 % 0.00 in
16:41 71.2 °F 33.6 °F 29.98 in SSW 3.0 mph 7.0 mph 25 % 0.00 in
16:46 71.1 °F 32.4 °F 29.98 in SE 4.0 mph 8.0 mph 24 % 0.00 in
16:51 70.7 °F 33.1 °F 29.98 in SSE 2.0 mph 8.0 mph 25 % 0.00 in
16:56 70.7 °F 33.1 °F 29.98 in SE 3.0 mph 8.0 mph 25 % 0.00 in
17:01 70.9 °F 34.3 °F 29.98 in SW 2.0 mph 8.0 mph 26 % 0.00 in
17:06 71.1 °F 33.4 °F 29.97 in South 1.0 mph 8.0 mph 25 % 0.00 in
17:11 70.7 °F 32.2 °F 29.97 in West 1.0 mph 5.0 mph 24 % 0.00 in
17:16 70.3 °F 32.9 °F 29.97 in South 4.0 mph 7.0 mph 25 % 0.00 in
17:21 69.8 °F 32.4 °F 29.97 in South 4.0 mph 7.0 mph 25 % 0.00 in
17:26 69.6 °F 33.3 °F 29.97 in SSW 1.0 mph 7.0 mph 26 % 0.00 in
17:31 69.3 °F 32.9 °F 29.96 in SSW 2.0 mph 7.0 mph 26 % 0.00 in
17:36 69.1 °F 32.7 °F 29.97 in South 2.0 mph 6.0 mph 26 % 0.00 in
17:41 68.5 °F 33.3 °F 29.96 in South 4.0 mph 6.0 mph 27 % 0.00 in
17:46 68.4 °F 34.0 °F 29.96 in South 3.0 mph 6.0 mph 28 % 0.00 in
17:51 68.2 °F 33.8 °F 29.96 in Calm   6.0 mph 28 % 0.00 in
17:56 67.8 °F 33.4 °F 29.96 in SE 2.0 mph 5.0 mph 28 % 0.00 in
18:01 67.5 °F 33.3 °F 29.96 in South 3.0 mph 5.0 mph 28 % 0.00 in
18:06 67.1 °F 32.9 °F 29.96 in SSE 4.0 mph 6.0 mph 28 % 0.00 in
18:11 66.7 °F 33.4 °F 29.96 in SSE 2.0 mph 6.0 mph 29 % 0.00 in
18:16 66.6 °F 34.2 °F 29.96 in SSW 1.0 mph 6.0 mph 30 % 0.00 in
18:21 66.0 °F 33.6 °F 29.96 in Calm   6.0 mph 30 % 0.00 in
18:26 65.7 °F 34.2 °F 29.96 in Calm   4.0 mph 31 % 0.00 in
18:31 65.1 °F 33.8 °F 29.96 in South 1.0 mph 3.0 mph 31 % 0.00 in
18:36 64.9 °F 34.3 °F 29.96 in South 1.0 mph 3.0 mph 32 % 0.00 in
18:41 64.6 °F 34.0 °F 29.96 in SSE 1.0 mph 3.0 mph 32 % 0.00 in
18:46 64.0 °F 34.3 °F 29.96 in SSE 3.0 mph 3.0 mph 33 % 0.00 in
18:51 63.9 °F 34.9 °F 29.97 in SSE 1.0 mph 3.0 mph 34 % 0.00 in
18:56 63.3 °F 35.2 °F 29.96 in South 1.0 mph 3.0 mph 35 % 0.00 in
19:01 63.0 °F 35.6 °F 29.96 in SSE 1.0 mph 3.0 mph 36 % 0.00 in
19:06 62.4 °F 34.3 °F 29.97 in Calm   2.0 mph 35 % 0.00 in
19:11 62.2 °F 35.6 °F 29.97 in SSW 1.0 mph 2.0 mph 37 % 0.00 in
19:16 61.9 °F 35.2 °F 29.97 in Calm   2.0 mph 37 % 0.00 in
19:21 61.3 °F 36.1 °F 29.97 in Calm   2.0 mph 39 % 0.00 in
19:26 60.8 °F 36.9 °F 29.97 in Calm   1.0 mph 41 % 0.00 in
19:31 60.1 °F 36.9 °F 29.97 in Calm   1.0 mph 42 % 0.00 in
19:36 59.4 °F 36.3 °F 29.98 in Calm     42 % 0.00 in
19:41 58.5 °F 36.0 °F 29.98 in Calm     43 % 0.00 in
19:46 57.6 °F 36.3 °F 29.98 in Calm     45 % 0.00 in
19:51 56.8 °F 36.3 °F 29.98 in Calm     46 % 0.00 in
19:56 56.1 °F 36.7 °F 29.98 in Calm     48 % 0.00 in
20:01 55.6 °F 36.7 °F 29.98 in Calm     49 % 0.00 in
20:06 55.6 °F 37.8 °F 29.98 in Calm     51 % 0.00 in
20:11 55.8 °F 37.9 °F 29.98 in Calm     51 % 0.00 in
20:16 55.8 °F 37.9 °F 29.98 in Calm     51 % 0.00 in
20:21 55.6 °F 38.3 °F 29.98 in Calm     52 % 0.00 in
20:26 55.2 °F 38.3 °F 29.98 in Calm     53 % 0.00 in
20:31 55.0 °F 38.7 °F 29.98 in Calm     54 % 0.00 in
20:36 54.9 °F 39.0 °F 29.98 in Calm     55 % 0.00 in
20:41 54.7 °F 38.8 °F 29.98 in Calm     55 % 0.00 in
20:46 54.5 °F 38.7 °F 29.98 in SSE 1.0 mph   55 % 0.00 in
20:51 54.5 °F 36.7 °F 29.98 in SSW 1.0 mph 1.0 mph 51 % 0.00 in
20:56 54.9 °F 38.1 °F 29.98 in Calm   1.0 mph 53 % 0.00 in
21:01 54.9 °F 38.1 °F 29.98 in Calm   1.0 mph 53 % 0.00 in
21:06 54.9 °F 38.5 °F 29.98 in Calm   1.0 mph 54 % 0.00 in
21:11 54.9 °F 38.5 °F 29.99 in South 1.0 mph   54 % 0.00 in
21:16 55.0 °F 36.7 °F 29.99 in South 3.0 mph 3.0 mph 50 % 0.00 in
21:21 55.9 °F 37.0 °F 29.99 in SSE 2.0 mph 3.0 mph 49 % 0.00 in
21:26 56.5 °F 37.0 °F 29.99 in SSE 2.0 mph 3.0 mph 48 % 0.00 in
21:31 56.8 °F 37.4 °F 29.99 in South 1.0 mph 4.0 mph 48 % 0.00 in
21:36 56.8 °F 37.4 °F 29.99 in SSE 2.0 mph 5.0 mph 48 % 0.00 in
21:41 57.0 °F 37.6 °F 29.99 in ESE 3.0 mph 5.0 mph 48 % 0.00 in
21:46 57.4 °F 37.9 °F 29.99 in SSE 2.0 mph 5.0 mph 48 % 0.00 in
21:51 57.4 °F 37.9 °F 29.99 in SE 1.0 mph 4.0 mph 48 % 0.00 in
21:56 57.2 °F 37.8 °F 29.99 in SE 1.0 mph 3.0 mph 48 % 0.00 in
22:01 57.0 °F 37.6 °F 29.99 in SSW 1.0 mph 3.0 mph 48 % 0.00 in
22:06 56.8 °F 37.9 °F 29.99 in SSE 1.0 mph 3.0 mph 49 % 0.00 in
22:12 56.7 °F 37.8 °F 29.99 in SSE 1.0 mph 3.0 mph 49 % 0.00 in
22:17 56.5 °F 37.6 °F 29.99 in SSE 3.0 mph 3.0 mph 49 % 0.00 in
22:21 56.5 °F 37.6 °F 29.99 in SSE 3.0 mph 4.0 mph 49 % 0.00 in
22:23 56.7 °F 37.8 °F 29.99 in SE 3.0 mph 4.0 mph 49 % 0.00 in
22:24 56.5 °F 38.1 °F 29.99 in South 1.0 mph 4.0 mph 50 % 0.00 in
22:26 56.5 °F 38.1 °F 29.99 in SE 2.0 mph 4.0 mph 50 % 0.00 in
22:31 56.3 °F 37.9 °F 29.99 in SSE 4.0 mph 6.0 mph 50 % 0.00 in
22:36 56.3 °F 37.9 °F 29.99 in SSE 4.0 mph 6.0 mph 50 % 0.00 in
22:41 56.3 °F 37.9 °F 29.99 in SSE 1.0 mph 6.0 mph 50 % 0.00 in
22:46 56.1 °F 37.8 °F 29.99 in South 2.0 mph 4.0 mph 50 % 0.00 in
22:51 55.9 °F 38.1 °F 29.99 in SSW 2.0 mph 4.0 mph 51 % 0.00 in
22:56 55.8 °F 37.9 °F 29.99 in SE 1.0 mph 4.0 mph 51 % 0.00 in
23:01 55.8 °F 38.5 °F 29.99 in SSE 1.0 mph 4.0 mph 52 % 0.00 in
23:06 55.6 °F 38.3 °F 29.99 in SE 1.0 mph 4.0 mph 52 % 0.00 in
23:11 55.2 °F 37.9 °F 29.99 in SSE 1.0 mph 3.0 mph 52 % 0.00 in
23:16 55.2 °F 38.3 °F 29.99 in SSW 1.0 mph 4.0 mph 53 % 0.00 in
23:21 55.0 °F 38.3 °F 29.99 in South 1.0 mph 4.0 mph 53 % 0.00 in
23:26 55.0 °F 38.7 °F 29.99 in SSE 1.0 mph 4.0 mph 54 % 0.00 in
23:31 54.9 °F 38.5 °F 29.99 in SSW 1.0 mph 4.0 mph 54 % 0.00 in
23:36 54.7 °F 38.3 °F 29.99 in SE 1.0 mph 3.0 mph 54 % 0.00 in
23:41 54.5 °F 38.1 °F 29.99 in SSW 1.0 mph 3.0 mph 54 % 0.00 in
23:46 54.5 °F 38.1 °F 29.99 in South 1.0 mph 3.0 mph 54 % 0.00 in
23:51 54.3 °F 38.5 °F 29.99 in South 1.0 mph 3.0 mph 55 % 0.00 in
23:56 54.3 °F 38.5 °F 29.99 in SSW 1.0 mph 2.0 mph 55 % 0.00 in
Spring, Texas: Villages of Bridgestone
Compliments of Weather Underground - 2.75 mb

Script developed by  Jim McMurry - jmcmurry@mwt.net Adapted for the template by  Wim van der Kuil - Leuven-Template.eu

You find our weather info also at:

UK Metoffice

WeatherCloud

Weather Underground

Mid-South Weather Network

AWEKAS

Citizen Weather Observer Program (CWOP)

HAMweather, WeatherForYou, PWS Weather

Equipment we use:

Weather-station
Davis Vantage Vue

Weather-program
Meteohub

Weather-server
Debian 7.9 x86 (Guest)

Provider
DreamHost

Davis Vantage Vue

Meteohub

Debian 7.9 x86 (Guest)

DreamHost